| time (UTC) | temp C | wind direction | speed KPH | gust KPH | rain 1hr cm | rain 24hr cm | rain mn cm | humidity % | barometer mb |
| 20260505092433 | 24 | 269 | 0.0 | 0.0 | 0.00 | 0.00 | 0.00 | 39 | 1042.5 |
| 20260505091614 | 23 | 314 | 1.6 | 4.8 | 0.00 | 0.00 | 0.00 | 40 | 1042.5 |
| 20260505090753 | 23 | 315 | 0.0 | 0.0 | 0.00 | 0.00 | 0.00 | 39 | 1042.5 |
| 20260505085933 | 23 | 338 | 0.0 | 0.0 | 0.00 | 0.00 | 0.00 | 39 | 1042.5 |
| 20260505085113 | 23 | 310 | 0.0 | 0.0 | 0.00 | 0.00 | 0.00 | 41 | 1042.5 |
| 20260505084253 | 22 | 330 | 0.0 | 0.0 | 0.00 | 0.00 | 0.00 | 43 | 1042.5 |
| 20260505083433 | 22 | 316 | 1.6 | 9.7 | 0.00 | 0.00 | 0.00 | 43 | 1042.5 |
| 20260505082613 | 22 | 338 | 0.0 | 0.0 | 0.00 | 0.00 | 0.00 | 45 | 1042.5 |
| 20260505081753 | 21 | 292 | 0.0 | 0.0 | 0.00 | 0.00 | 0.00 | 45 | 1042.5 |
| 20260505080934 | 21 | 349 | 1.6 | 4.8 | 0.00 | 0.00 | 0.00 | 48 | 1042.5 |
| 20260505080113 | 21 | 338 | 1.6 | 9.7 | 0.00 | 0.00 | 0.00 | 47 | 1042.5 |
| 20260505075253 | 21 | 359 | 0.0 | 1.6 | 0.00 | 0.00 | 0.00 | 50 | 1042.5 |
| 20260505074433 | 20 | 345 | 0.0 | 0.0 | 0.00 | 0.00 | 0.00 | 48 | 1042.5 |
| 20260505073613 | 20 | 312 | 0.0 | 0.0 | 0.00 | 0.00 | 0.00 | 48 | 1042.5 |
| 20260505072753 | 20 | 335 | 0.0 | 9.7 | 0.00 | 0.00 | 0.00 | 49 | 1042.5 |
| 20260505071933 | 19 | 338 | 0.0 | 0.0 | 0.00 | 0.00 | 0.00 | 50 | 1042.5 |
| 20260505071113 | 19 | 292 | 0.0 | 0.0 | 0.00 | 0.00 | 0.00 | 50 | 1042.5 |
| 20260505070253 | 18 | 338 | 0.0 | 0.0 | 0.00 | 0.00 | 0.00 | 51 | 1042.5 |
| 20260505065433 | 18 | 0 | 0.0 | 0.0 | 0.00 | 0.00 | 0.00 | 53 | 1042.5 |
| 20260505064613 | 18 | 303 | 0.0 | 0.0 | 0.00 | 0.00 | 0.00 | 53 | 1042.5 |
| 20260505063753 | 17 | 327 | 1.6 | 3.2 | 0.00 | 0.00 | 0.00 | 55 | 1042.5 |
| 20260505062933 | 17 | 338 | 0.0 | 1.6 | 0.00 | 0.00 | 0.00 | 56 | 1042.5 |
| 20260505062113 | 17 | 315 | 0.0 | 0.0 | 0.00 | 0.00 | 0.00 | 56 | 1042.5 |
| 20260505061253 | 17 | 0 | 0.0 | 0.0 | 0.00 | 0.00 | 0.00 | 57 | 1042.5 |
| 20260505060433 | 16 | 0 | 0.0 | 0.0 | 0.00 | 0.00 | 0.00 | 59 | 1042.5 |
| 20260505055613 | 16 | 315 | 0.0 | 0.0 | 0.00 | 0.00 | 0.00 | 61 | 1042.5 |
| 20260505054753 | 15 | 315 | 0.0 | 0.0 | 0.00 | 0.00 | 0.00 | 64 | 1042.5 |
| 20260505053933 | 15 | 315 | 0.0 | 0.0 | 0.00 | 0.00 | 0.00 | 68 | 1042.5 |
| 20260505053113 | 14 | 315 | 0.0 | 0.0 | 0.00 | 0.00 | 0.00 | 69 | 1042.5 |
| 20260505052253 | 13 | 315 | 0.0 | 0.0 | 0.00 | 0.00 | 0.00 | 70 | 1042.5 |
| 20260505051433 | 13 | 315 | 0.0 | 0.0 | 0.00 | 0.00 | 0.00 | 71 | 1042.5 |
| 20260505050613 | 13 | 315 | 0.0 | 0.0 | 0.00 | 0.00 | 0.00 | 73 | 1042.5 |
| 20260505041613 | 10 | 112 | 0.0 | 0.0 | 0.00 | 0.00 | 0.00 | 80 | 1042.5 |
| 20260505040753 | 9 | 112 | 0.0 | 0.0 | 0.00 | 0.00 | 0.00 | 81 | 1042.5 |
| 20260505035933 | 8 | 112 | 0.0 | 0.0 | 0.00 | 0.00 | 0.00 | 82 | 1042.5 |
| 20260505035113 | 8 | 68 | 0.0 | 0.0 | 0.00 | 0.00 | 0.00 | 82 | 1042.5 |
| 20260505034253 | 8 | 68 | 0.0 | 0.0 | 0.00 | 0.00 | 0.00 | 82 | 1042.5 |
| 20260505033433 | 8 | 68 | 0.0 | 0.0 | 0.00 | 0.00 | 0.00 | 82 | 1042.5 |
| 20260505032613 | 8 | 68 | 0.0 | 0.0 | 0.00 | 0.00 | 0.00 | 82 | 1042.5 |
| 20260505031753 | 8 | 248 | 0.0 | 0.0 | 0.00 | 0.00 | 0.00 | 82 | 1042.5 |
| 20260505030933 | 8 | 248 | 0.0 | 0.0 | 0.00 | 0.00 | 0.00 | 82 | 1042.5 |
| 20260505030113 | 9 | 248 | 0.0 | 0.0 | 0.00 | 0.00 | 0.00 | 81 | 1042.5 |
| 20260505025253 | 9 | 238 | 0.0 | 0.0 | 0.00 | 0.00 | 0.00 | 80 | 1042.5 |
| 20260505024433 | 9 | 225 | 0.0 | 0.0 | 0.00 | 0.00 | 0.00 | 80 | 1042.5 |
| 20260505023613 | 9 | 0 | 0.0 | 0.0 | 0.00 | 0.00 | 0.00 | 80 | 1042.5 |
| 20260505022753 | 9 | 22 | 0.0 | 0.0 | 0.00 | 0.00 | 0.00 | 80 | 1042.5 |
| 20260505021933 | 9 | 22 | 0.0 | 0.0 | 0.00 | 0.00 | 0.00 | 80 | 1042.5 |
| 20260505021113 | 10 | 22 | 0.0 | 0.0 | 0.00 | 0.00 | 0.00 | 80 | 1042.5 |
| 20260505020253 | 10 | 22 | 0.0 | 0.0 | 0.00 | 0.00 | 0.00 | 81 | 1042.5 |
| 20260505015433 | 10 | 0 | 0.0 | 0.0 | 0.00 | 0.00 | 0.00 | 81 | 1042.5 |
| 20260505014613 | 10 | 0 | 0.0 | 0.0 | 0.00 | 0.00 | 0.00 | 81 | 1042.5 |
| 20260505013753 | 10 | 22 | 0.0 | 0.0 | 0.00 | 0.00 | 0.00 | 80 | 1042.5 |
| 20260505012933 | 10 | 22 | 0.0 | 0.0 | 0.00 | 0.00 | 0.00 | 78 | 1042.5 |
| 20260505012113 | 10 | 22 | 0.0 | 0.0 | 0.00 | 0.00 | 0.00 | 79 | 1042.5 |
| 20260505011253 | 10 | 22 | 0.0 | 0.0 | 0.00 | 0.00 | 0.00 | 79 | 1042.5 |
| 20260505010433 | 10 | 44 | 0.0 | 0.0 | 0.00 | 0.00 | 0.00 | 79 | 1042.5 |
| 20260505005613 | 10 | 45 | 0.0 | 0.0 | 0.00 | 0.00 | 0.00 | 79 | 1042.5 |
| 20260505004753 | 10 | 45 | 0.0 | 0.0 | 0.00 | 0.00 | 0.00 | 78 | 1042.5 |
| 20260505003933 | 10 | 45 | 0.0 | 0.0 | 0.00 | 0.00 | 0.00 | 78 | 1042.5 |
| 20260505003113 | 10 | 45 | 0.0 | 0.0 | 0.00 | 0.00 | 0.00 | 78 | 1042.5 |
| 20260505002253 | 10 | 45 | 0.0 | 0.0 | 0.00 | 0.00 | 0.00 | 78 | 1042.5 |
| 20260505001433 | 10 | 45 | 0.0 | 0.0 | 0.00 | 0.00 | 0.00 | 77 | 1042.5 |
| 20260505000613 | 10 | 45 | 0.0 | 0.0 | 0.00 | 0.00 | 0.00 | 76 | 1042.5 |
| 20260504235753 | 10 | 45 | 0.0 | 0.0 | 0.00 | 0.00 | 0.00 | 76 | 1042.5 |
| 20260504234933 | 10 | 45 | 0.0 | 0.0 | 0.00 | 0.00 | 0.00 | 76 | 1042.5 |
| 20260504234113 | 10 | 45 | 0.0 | 0.0 | 0.00 | 0.00 | 0.00 | 75 | 1042.5 |
| 20260504233253 | 10 | 45 | 0.0 | 0.0 | 0.00 | 0.00 | 0.00 | 76 | 1042.5 |
| 20260504232433 | 10 | 45 | 0.0 | 0.0 | 0.00 | 0.00 | 0.00 | 74 | 1042.5 |
| 20260504231613 | 10 | 45 | 0.0 | 0.0 | 0.00 | 0.00 | 0.00 | 75 | 1042.5 |
| 20260504230753 | 10 | 45 | 0.0 | 0.0 | 0.00 | 0.00 | 0.00 | 74 | 1042.5 |
| 20260504225933 | 10 | 45 | 0.0 | 0.0 | 0.00 | 0.00 | 0.00 | 75 | 1042.5 |
| 20260504225113 | 10 | 45 | 0.0 | 0.0 | 0.00 | 0.00 | 0.00 | 75 | 1042.5 |
| 20260504224253 | 10 | 45 | 0.0 | 0.0 | 0.00 | 0.00 | 0.00 | 75 | 1042.5 |
| 20260504223433 | 11 | 45 | 0.0 | 0.0 | 0.00 | 0.00 | 0.00 | 73 | 1042.5 |
| 20260504222613 | 11 | 45 | 0.0 | 0.0 | 0.00 | 0.00 | 0.00 | 72 | 1042.5 |
| 20260504221753 | 11 | 45 | 0.0 | 0.0 | 0.00 | 0.00 | 0.00 | 71 | 1042.5 |
| 20260504220932 | 11 | 45 | 0.0 | 0.0 | 0.00 | 0.00 | 0.00 | 72 | 1042.5 |
| 20260504220112 | 11 | 45 | 0.0 | 0.0 | 0.00 | 0.00 | 0.00 | 72 | 1042.5 |
| 20260504215252 | 11 | 45 | 0.0 | 0.0 | 0.00 | 0.00 | 0.00 | 71 | 1042.5 |
| 20260504214432 | 11 | 45 | 0.0 | 0.0 | 0.00 | 0.00 | 0.00 | 71 | 1042.5 |
| 20260504213612 | 11 | 45 | 0.0 | 0.0 | 0.00 | 0.00 | 0.00 | 72 | 1042.5 |
| 20260504212752 | 11 | 45 | 0.0 | 0.0 | 0.00 | 0.00 | 0.00 | 73 | 1042.5 |
| 20260504211932 | 12 | 68 | 0.0 | 0.0 | 0.00 | 0.00 | 0.00 | 69 | 1042.5 |
| 20260504211112 | 12 | 68 | 0.0 | 0.0 | 0.00 | 0.00 | 0.00 | 68 | 1042.5 |
| 20260504210252 | 12 | 68 | 0.0 | 0.0 | 0.00 | 0.00 | 0.00 | 67 | 1042.5 |
| 20260504205432 | 12 | 68 | 0.0 | 0.0 | 0.00 | 0.00 | 0.00 | 65 | 1042.5 |
| 20260504204612 | 12 | 68 | 0.0 | 0.0 | 0.00 | 0.00 | 0.00 | 66 | 1042.5 |
| 20260504203752 | 13 | 68 | 0.0 | 0.0 | 0.00 | 0.00 | 0.00 | 66 | 1042.5 |
| 20260504202932 | 13 | 68 | 0.0 | 0.0 | 0.00 | 0.00 | 0.00 | 63 | 1042.5 |
| 20260504202112 | 13 | 68 | 0.0 | 0.0 | 0.00 | 0.00 | 0.00 | 62 | 1042.5 |
| 20260504201252 | 14 | 112 | 0.0 | 0.0 | 0.00 | 0.00 | 0.00 | 63 | 1042.5 |
| 20260504200432 | 15 | 112 | 0.0 | 0.0 | 0.00 | 0.00 | 0.00 | 63 | 1042.5 |
| 20260504195612 | 15 | 112 | 0.0 | 0.0 | 0.00 | 0.00 | 0.00 | 62 | 1042.5 |
| 20260504194752 | 15 | 112 | 0.0 | 0.0 | 0.00 | 0.00 | 0.00 | 61 | 1042.5 |
| 20260504193932 | 15 | 130 | 0.0 | 0.0 | 0.00 | 0.00 | 0.00 | 61 | 1042.5 |
| 20260504193112 | 16 | 202 | 0.0 | 0.0 | 0.00 | 0.00 | 0.00 | 61 | 1042.5 |
| 20260504192252 | 16 | 225 | 0.0 | 0.0 | 0.00 | 0.00 | 0.00 | 60 | 1042.5 |
| 20260504191432 | 16 | 225 | 0.0 | 0.0 | 0.00 | 0.00 | 0.00 | 56 | 1042.5 |
| 20260504190612 | 16 | 225 | 0.0 | 0.0 | 0.00 | 0.00 | 0.00 | 55 | 1042.5 |
| 20260504185752 | 16 | 0 | 0.0 | 0.0 | 0.00 | 0.00 | 0.00 | 57 | 1042.5 |
| 20260504184932 | 16 | 0 | 0.0 | 0.0 | 0.00 | 0.00 | 0.00 | 54 | 1042.5 |
| 20260504184112 | 16 | 0 | 0.0 | 0.0 | 0.00 | 0.00 | 0.00 | 52 | 1042.5 |
| 20260504183252 | 17 | 22 | 0.0 | 0.0 | 0.00 | 0.00 | 0.00 | 53 | 1042.5 |
| 20260504182432 | 17 | 0 | 0.0 | 0.0 | 0.00 | 0.00 | 0.00 | 52 | 1042.5 |
| 20260504181612 | 17 | 0 | 0.0 | 0.0 | 0.00 | 0.00 | 0.00 | 52 | 1042.5 |
| 20260504180752 | 17 | 338 | 0.0 | 0.0 | 0.00 | 0.00 | 0.00 | 48 | 1042.5 |
| 20260504175932 | 18 | 315 | 0.0 | 0.0 | 0.00 | 0.00 | 0.00 | 45 | 1042.5 |
| 20260504175112 | 19 | 248 | 0.0 | 0.0 | 0.00 | 0.00 | 0.00 | 42 | 1042.5 |
| 20260504174252 | 20 | 292 | 0.0 | 0.0 | 0.00 | 0.00 | 0.00 | 41 | 1042.5 |
| 20260504173432 | 20 | 300 | 0.0 | 0.0 | 0.00 | 0.00 | 0.00 | 41 | 1042.5 |
| 20260504172612 | 20 | 338 | 0.0 | 0.0 | 0.00 | 0.00 | 0.00 | 41 | 1042.5 |
| 20260504171752 | 21 | 312 | 0.0 | 0.0 | 0.00 | 0.00 | 0.00 | 39 | 1042.5 |
| 20260504170932 | 21 | 292 | 0.0 | 0.0 | 0.00 | 0.00 | 0.00 | 37 | 1042.5 |
| 20260504170112 | 21 | 234 | 1.6 | 8.0 | 0.00 | 0.00 | 0.00 | 36 | 1042.5 |
| 20260504160252 | 24 | 300 | 0.0 | 3.2 | 0.00 | 0.00 | 0.00 | 32 | 1042.5 |
| 20260504150432 | 25 | 298 | 4.8 | 4.8 | 0.00 | 0.00 | 0.00 | 30 | 1042.5 |
| 20260504140612 | 24 | 279 | 3.2 | 11.3 | 0.00 | 0.00 | 0.00 | 32 | 1042.5 |
| 20260504130752 | 23 | 288 | 0.0 | 0.0 | 0.00 | 0.00 | 0.00 | 34 | 1042.5 |
| 20260504120112 | 22 | 301 | 0.0 | 0.0 | 0.00 | 0.00 | 0.00 | 35 | 1042.5 |
| 20260504110252 | 21 | 51 | 0.0 | 0.0 | 0.00 | 0.00 | 0.00 | 35 | 1042.5 |
| 20260504100432 | 20 | 316 | 1.6 | 4.8 | 0.00 | 0.00 | 0.00 | 38 | 1042.5 |